Theta_e
353 354 356 356 355 348 343 340 321 328 327 319 323 323 321 335 334 332 332 336 331 336 338 338 336 335 335 331 333 336 339 333 334 324 325 341 354 356 357 358 359 360 358 358 361 364 365 366 365 363 365 365 366 365 364 365 365 366 366 366 366 366 366 365 364 364 365 366 366 365 364 364 364 363 363 363 363 363 363 362 363 363 363 362 361 361 361 360 359 359 358 357 357 357 357 359 360
354 355 354 354 349 345 334 341 325 325 324 320 321 326 326 332 331 329 331 331 333 334 338 338 339 340 340 337 338 338 334 341 342 340 342 348 350 356 355 358 358 356 356 357 359 361 361 366 366 365 366 366 367 367 366 367 366 366 366 366 366 366 365 364 364 365 365 365 364 364 364 363 363 363 363 363 362 363 362 362 361 362 362 362 361 361 359 360 360 360 359 359 359 359 358 358 359
355 354 352 352 347 342 347 339 322 323 316 314 319 325 333 329 328 333 336 337 336 337 338 338 339 339 336 337 332 333 331 343 343 344 341 349 345 352 357 358 358 357 357 358 360 361 361 365 366 367 367 367 367 366 367 366 366 366 366 365 365 364 364 364 364 364 365 364 363 363 363 363 362 361 361 361 361 361 362 362 362 361 361 361 361 359 359 359 360 359 358 358 358 358 359 357 356
359 355 349 347 336 346 335 332 325 322 318 319 320 330 331 329 331 338 337 337 337 338 336 337 335 341 336 331 333 340 338 340 344 343 343 346 347 353 357 358 360 357 358 359 360 360 361 367 366 367 366 366 366 366 366 366 366 365 365 364 364 364 365 365 364 364 364 363 363 362 362 363 362 361 361 361 362 362 362 362 362 361 361 361 360 361 361 359 359 359 359 359 359 359 359 359 359
358 355 353 345 338 330 331 329 328 325 316 320 318 327 332 333 334 336 337 337 337 337 338 336 336 341 340 337 338 333 336 344 344 345 345 347 355 356 358 359 358 357 356 358 359 358 363 367 367 366 366 366 366 366 365 365 365 365 364 364 365 365 365 365 364 363 363 363 362 362 362 362 361 361 361 362 362 362 361 362 362 362 361 361 362 360 360 359 358 358 360 359 360 358 359 359 360
356 354 353 348 336 346 335 325 323 321 328 330 326 328 335 337 337 337 337 337 338 340 339 338 336 335 337 338 340 337 344 336 344 347 349 345 350 355 357 359 356 354 356 358 357 358 363 367 366 366 365 365 366 366 366 365 364 364 364 365 365 365 364 364 364 363 363 362 362 363 363 363 362 362 362 362 362 361 361 361 361 361 362 362 362 362 361 357 359 360 360 359 360 359 359 360 359
351 348 345 345 342 341 326 324 322 324 326 334 330 333 335 337 338 338 336 335 338 339 342 337 338 337 332 339 342 346 348 347 344 347 352 352 355 356 357 356 355 355 358 358 357 358 363 366 366 366 365 366 366 366 365 365 365 364 364 365 366 365 364 363 363 362 362 363 363 363 362 361 362 362 362 362 362 361 361 360 361 361 361 362 362 361 361 360 359 359 360 359 359 359 360 360 359
357 342 341 333 332 332 324 326 323 325 327 334 336 335 337 340 339 339 336 335 332 334 338 339 339 335 334 343 334 344 348 350 349 353 353 353 355 355 356 355 354 354 356 358 359 363 368 367 366 366 366 366 366 366 365 365 365 365 365 365 364 364 364 363 363 363 363 363 362 363 361 361 361 362 362 362 362 362 361 361 360 361 361 362 361 361 362 361 359 360 359 360 360 358 359 359 359
354 346 347 335 327 334 326 324 326 332 328 335 339 342 341 339 341 339 336 336 337 338 337 338 337 332 334 336 336 345 347 352 352 354 354 354 354 355 355 355 353 353 356 357 359 362 365 366 366 365 365 365 365 365 365 366 365 364 364 364 365 364 363 363 363 362 362 361 361 362 363 362 362 363 362 362 362 362 361 361 362 362 362 362 361 361 361 362 362 361 360 360 360 359 359 359 358
348 346 334 331 334 324 323 323 321 329 329 335 337 339 340 340 339 338 338 334 335 337 339 340 340 335 339 334 337 343 345 352 353 353 354 354 354 355 355 355 354 354 355 355 357 359 363 369 366 366 365 365 365 365 365 365 366 365 364 364 365 364 362 362 364 363 362 361 362 362 363 363 363 363 362 363 362 362 361 360 362 360 360 360 361 361 361 361 361 360 359 360 358 358 357 358 359
338 344 343 329 326 323 321 324 325 329 331 339 340 346 341 342 342 339 340 339 337 335 338 340 337 335 337 338 339 349 350 351 350 349 353 354 355 353 353 355 353 353 353 353 356 361 364 365 368 366 365 364 365 364 365 366 366 364 364 363 364 363 362 362 363 362 362 362 363 362 363 363 363 363 362 362 362 362 361 362 361 361 359 360 362 362 362 361 361 359 359 359 358 358 358 358 359
334 335 337 323 323 321 324 324 327 328 335 338 336 343 343 341 342 336 338 336 335 334 335 340 336 341 336 337 338 347 349 349 350 352 353 353 352 353 353 352 352 352 353 354 357 359 362 366 366 366 365 365 366 365 365 365 365 364 363 363 364 364 362 363 362 362 362 363 363 364 364 363 362 362 363 363 363 362 362 362 360 361 360 360 361 362 362 361 360 358 358 359 358 357 357 356 357
336 336 330 326 324 325 325 322 321 328 328 331 337 339 344 340 338 340 339 336 334 333 334 344 342 342 333 336 343 347 346 347 352 352 352 352 351 352 352 351 351 351 356 357 356 357 361 363 363 366 365 366 365 365 365 364 364 364 363 362 362 363 364 363 363 363 363 364 364 364 363 362 363 362 362 362 363 363 362 361 361 361 361 361 363 363 361 361 359 357 357 357 358 357 357 356 354
336 338 336 325 332 326 326 327 328 322 324 330 338 342 341 339 339 341 340 337 334 335 340 344 343 342 336 339 341 342 345 349 351 352 352 352 352 351 351 350 350 351 355 358 357 358 358 359 360 363 366 364 365 365 365 364 363 363 363 363 363 363 364 364 363 363 364 363 364 364 363 363 364 364 363 363 363 363 363 363 363 362 362 362 361 361 362 361 359 359 358 357 357 356 356 356 358
335 341 336 330 323 326 327 324 322 323 326 335 338 340 339 341 344 341 340 338 337 343 346 348 345 340 331 335 335 341 346 350 352 352 351 352 352 351 351 350 349 350 352 357 357 355 356 356 357 361 365 366 364 366 365 364 363 363 363 363 363 363 365 364 364 362 364 364 364 363 363 364 364 364 364 364 364 365 363 363 363 363 363 361 360 360 362 361 360 360 360 359 358 357 357 359 360
340 340 335 328 323 323 325 326 328 323 327 336 337 340 340 342 343 339 342 346 339 347 345 340 346 339 339 338 340 345 349 351 352 351 350 351 352 351 349 348 348 349 351 354 356 357 355 354 357 359 362 366 363 364 364 365 364 363 363 363 364 365 365 364 365 364 364 365 364 363 364 364 364 363 362 364 362 362 362 363 363 363 363 362 361 361 362 362 363 362 361 360 360 360 361 360 361
340 340 327 327 321 323 324 324 325 323 330 335 339 339 336 336 344 343 346 345 338 337 341 343 342 347 341 342 345 348 350 352 350 350 350 350 349 347 348 347 347 348 349 354 357 355 354 355 358 360 361 363 359 360 362 364 365 364 363 364 365 365 365 365 365 364 365 364 364 362 364 366 367 363 362 363 362 366 364 363 362 362 363 362 361 362 362 362 363 363 363 362 362 362 363 363 362
339 329 326 322 324 320 326 328 330 333 331 334 335 339 337 334 339 341 345 342 340 339 339 342 344 345 346 346 349 349 351 350 350 349 347 348 348 345 344 345 345 345 347 351 356 355 354 354 356 361 361 362 365 362 363 363 364 364 365 367 366 366 366 365 366 368 366 366 364 365 365 364 366 366 365 363 366 364 364 362 362 362 361 361 363 363 363 363 363 363 362 362 362 362 363 360 362
331 328 326 320 327 327 333 333 333 332 334 337 336 339 338 335 339 340 337 337 337 336 338 340 340 343 345 346 347 348 349 349 349 348 347 346 345 344 343 345 345 345 347 349 353 355 354 353 355 359 360 362 365 364 361 362 364 367 367 367 366 367 368 368 369 368 366 363 362 360 365 366 365 366 367 365 366 360 361 361 362 361 361 363 364 364 364 364 363 363 363 362 363 364 364 363 360
331 328 324 324 330 335 332 335 334 336 341 337 337 338 341 339 339 339 336 335 336 334 334 337 338 339 341 343 345 347 348 347 349 348 347 346 346 344 344 343 344 346 346 349 351 355 354 351 356 359 361 364 363 362 361 361 366 363 365 365 366 367 367 370 369 368 364 366 357 358 365 363 365 366 367 366 364 363 363 362 363 364 363 364 364 364 364 364 363 364 363 363 362 364 365 362 360
327 324 320 328 331 329 332 336 336 335 338 335 336 338 335 339 341 337 339 332 333 335 338 338 337 339 341 341 343 345 346 346 347 345 346 345 345 345 344 344 344 346 348 350 351 353 353 352 355 359 363 363 363 361 361 361 362 362 364 364 366 365 366 364 367 371 367 368 366 360 362 364 363 364 366 367 366 366 363 362 367 364 364 365 361 363 363 365 364 362 364 363 360 361 359 359 358
327 324 326 328 331 325 334 336 336 335 335 336 336 333 338 341 342 336 337 336 330 341 337 342 342 341 341 341 343 343 343 345 345 344 345 345 344 344 343 343 344 347 350 349 349 352 352 352 354 359 360 362 363 359 360 364 362 359 362 364 364 363 363 365 365 367 367 367 363 359 362 363 357 362 364 365 365 365 364 364 365 365 361 363 364 363 360 363 364 360 361 359 357 358 358 359 358
319 324 327 329 329 331 336 336 334 333 335 335 333 334 338 338 339 338 339 336 338 342 342 344 344 343 343 344 344 342 341 344 344 343 344 342 343 344 343 343 342 344 348 348 349 351 352 352 355 357 357 360 361 361 362 357 361 362 363 363 362 361 363 364 365 365 365 366 362 360 355 360 361 360 363 363 364 364 364 365 362 364 363 360 362 358 357 362 361 358 360 360 359 353 352 358 358
322 318 327 327 328 330 337 336 335 335 332 332 334 338 335 336 334 339 337 339 340 341 349 346 345 344 344 343 343 342 341 342 344 344 344 343 343 343 343 342 341 345 349 350 349 348 351 351 355 356 357 358 361 361 362 357 358 355 362 362 362 362 363 362 362 362 364 365 365 361 359 363 359 359 361 360 360 362 361 360 363 364 360 360 361 360 358 358 362 359 360 358 360 358 355 353 354
318 318 322 329 332 332 336 337 337 336 334 335 335 332 334 335 336 339 339 342 342 347 346 345 345 343 343 343 343 342 342 343 344 344 346 346 346 346 344 344 341 344 345 350 348 347 350 352 354 354 357 359 358 359 358 354 356 357 357 357 356 359 360 357 358 363 361 360 361 363 363 359 359 360 359 359 361 361 359 360 358 360 361 360 362 362 361 363 361 360 358 361 360 358 354 355 357
319 319 322 323 327 331 334 336 337 336 336 335 331 331 335 336 340 336 340 342 345 345 344 344 343 342 342 342 342 342 341 342 344 343 343 346 346 345 343 343 341 342 345 349 348 348 349 353 353 353 356 357 357 356 357 356 356 354 357 358 357 359 355 355 360 355 356 357 359 363 363 360 358 358 360 361 359 358 359 359 360 358 362 364 364 361 364 364 362 358 360 359 358 358 357 357 357
323 321 321 321 323 326 331 333 335 336 335 334 329 329 332 336 335 331 342 345 344 343 343 342 342 340 342 341 342 343 342 342 343 343 344 345 345 345 345 345 342 342 346 347 348 348 350 351 351 355 356 360 358 355 356 357 358 355 355 355 358 356 356 360 356 355 357 357 361 367 367 367 360 359 360 361 359 360 361 360 359 363 363 365 364 362 366 364 363 360 362 359 359 359 356 353 356
320 323 323 321 321 324 328 332 333 335 332 334 333 330 330 339 334 335 337 340 344 340 341 341 341 340 341 342 342 344 343 344 344 343 342 344 343 344 344 345 344 344 344 346 348 349 349 349 351 353 355 358 357 355 357 357 358 355 357 356 354 357 361 356 353 358 359 360 364 367 367 366 367 372 365 364 363 360 364 365 364 362 366 365 364 365 361 365 362 362 365 367 365 362 358 359 358
318 317 314 320 321 318 322 324 331 334 331 334 333 328 328 327 327 336 337 339 342 341 340 339 340 342 343 343 342 343 343 344 344 342 343 345 346 346 345 347 346 344 345 346 348 349 348 349 351 354 356 358 356 354 355 356 357 357 356 356 355 358 359 356 355 359 362 365 366 368 371 369 370 366 368 365 364 366 368 367 365 361 361 361 365 364 364 364 364 366 367 363 364 362 358 358 357
316 316 314 315 316 315 320 323 326 330 332 334 332 316 320 329 331 335 338 338 342 342 339 337 340 342 341 342 342 343 344 344 343 343 345 345 346 347 346 347 348 346 346 346 348 347 348 348 350 351 354 356 356 353 356 354 356 358 358 356 358 361 355 353 355 359 361 362 366 368 368 370 369 369 370 368 367 361 362 365 366 366 367 365 369 364 363 364 362 362 364 363 358 364 358 356 352
309 313 314 309 309 310 318 321 324 325 332 331 331 318 322 327 330 333 341 340 339 337 337 337 340 340 341 342 343 342 344 345 343 344 345 346 347 347 348 348 348 347 348 346 346 348 349 347 349 348 355 357 356 354 353 354 355 355 354 357 358 357 354 356 354 358 358 360 363 363 368 370 373 373 373 370 368 364 360 361 362 363 365 366 368 361 362 361 360 363 364 364 363 360 359 355 353
311 307 304 308 307 310 317 322 324 322 330 331 328 318 321 325 328 333 339 342 338 339 337 339 340 339 341 342 342 342 342 344 344 345 345 345 346 346 347 347 348 347 348 348 348 348 348 348 351 348 353 355 356 355 354 356 354 354 354 355 358 359 353 357 355 356 358 358 360 362 371 372 371 376 372 372 364 366 365 359 359 363 363 364 364 365 362 357 356 361 362 362 359 356 355 354 355
311 307 305 306 308 310 313 318 323 327 329 329 327 321 323 324 331 333 337 340 336 336 340 342 341 340 341 341 343 342 343 343 344 344 345 346 346 347 347 348 347 348 349 348 350 349 347 349 350 348 351 354 354 355 356 359 357 354 355 355 352 359 352 354 355 358 358 360 359 362 371 372 374 370 376 369 373 364 360 364 364 364 362 363 361 364 362 358 360 357 360 359 361 361 352 351 353
305 309 305 309 308 310 309 318 322 326 327 324 328 323 324 326 328 331 335 336 336 336 338 339 340 341 341 342 342 342 342 342 341 344 345 346 348 348 349 351 349 349 350 350 351 348 347 350 349 348 351 353 353 358 358 358 358 359 358 353 356 352 350 352 354 357 359 357 359 360 367 371 375 374 374 372 371 366 366 362 367 367 364 363 365 365 360 361 362 362 361 362 359 360 352 352 351
303 305 305 306 310 312 311 312 320 324 326 323 324 324 325 325 328 330 332 338 335 336 334 339 340 341 341 342 342 342 343 342 342 345 345 346 348 349 348 351 350 350 350 351 352 351 350 351 351 351 350 353 355 360 362 361 360 362 356 354 355 351 355 352 352 352 354 360 357 371 371 371 376 376 372 374 370 363 361 365 365 366 369 365 361 358 359 360 361 360 362 358 362 360 356 356 352
306 308 307 308 307 309 310 315 321 323 321 320 323 321 323 325 327 330 333 336 335 336 337 340 338 341 342 341 341 342 341 343 345 346 347 347 348 348 349 350 350 350 350 352 354 353 353 354 352 352 354 351 356 360 361 356 356 356 350 351 353 354 352 352 356 351 354 353 363 369 369 371 373 377 373 371 371 370 365 365 365 368 370 368 364 357 358 358 357 361 358 362 360 356 355 356 355
310 309 308 308 308 310 314 315 318 324 320 319 321 324 324 325 326 331 333 332 332 334 335 337 339 338 341 339 340 340 343 343 346 347 347 347 348 349 350 350 350 350 352 352 353 353 353 353 352 353 354 354 357 357 357 352 352 352 350 348 348 349 352 351 351 352 352 352 360 364 366 370 375 375 372 375 368 369 368 368 368 367 368 365 366 359 358 361 363 364 359 364 359 357 349 351 352
308 308 308 307 309 308 313 314 317 323 318 318 322 322 324 327 328 330 331 331 330 333 336 334 338 337 336 339 337 340 344 346 345 346 347 347 348 350 350 350 352 348 351 352 353 354 355 355 353 354 355 355 357 358 358 354 353 351 349 348 346 345 348 348 348 351 349 350 360 364 366 366 370 375 375 370 371 370 366 366 370 369 366 367 367 365 367 365 362 362 361 361 362 354 347 347 348
308 307 307 307 309 311 314 315 317 320 319 316 321 319 321 325 328 330 328 329 331 334 336 338 342 341 338 340 340 340 343 345 345 345 347 346 348 349 349 350 350 350 350 351 354 356 355 355 356 358 357 356 358 360 359 355 354 355 350 348 345 343 348 350 348 348 349 348 356 362 366 368 370 372 373 372 369 368 369 369 368 372 364 365 367 366 366 366 371 363 358 353 355 356 349 349 349
307 306 305 304 309 308 306 313 315 318 317 316 319 318 319 324 327 328 330 331 334 334 334 342 340 340 342 340 338 338 338 343 344 346 345 346 349 349 350 350 350 350 352 352 353 355 355 357 357 359 359 359 360 361 361 357 356 357 356 352 349 348 347 350 352 350 349 348 352 358 365 368 369 369 369 369 368 366 368 369 368 367 368 370 369 360 363 364 361 364 360 361 355 349 347 345 350
307 307 306 305 306 308 309 311 314 316 317 318 317 315 317 320 321 324 329 331 331 333 334 335 341 343 341 341 341 344 342 343 344 346 346 346 345 348 350 352 351 350 351 351 353 354 353 356 359 361 360 360 361 363 361 359 357 357 356 355 352 349 350 349 348 346 349 348 349 355 358 365 369 369 369 370 369 368 368 369 368 369 370 369 367 368 363 358 363 363 362 361 357 351 343 344 347
306 307 307 307 307 306 308 310 312 310 309 315 313 306 309 318 319 321 325 327 328 330 330 333 337 340 341 337 343 343 345 346 344 344 347 346 347 350 352 352 351 350 350 353 354 355 355 356 360 362 361 361 359 363 363 359 357 356 355 350 347 343 346 347 346 345 345 345 342 348 356 360 364 368 369 372 369 368 368 368 370 368 368 368 368 365 365 364 360 363 363 362 356 360 359 344 344
304 305 309 308 307 307 307 309 309 306 305 312 316 306 305 315 316 319 323 325 326 329 330 332 334 337 338 338 339 341 343 344 345 347 346 347 348 350 351 351 352 349 351 354 354 355 356 356 360 362 362 360 361 363 364 361 360 358 356 351 349 346 345 349 353 348 345 347 347 346 351 358 363 364 367 369 371 369 370 369 369 368 368 369 367 367 367 363 360 363 364 362 362 361 359 349 345
302 309 309 308 307 305 306 308 309 308 312 314 315 311 306 307 314 320 322 321 323 326 330 331 336 336 336 338 338 341 342 345 345 345 345 346 349 349 349 352 352 350 352 353 353 355 357 359 360 362 362 361 361 364 363 362 360 360 357 354 350 349 345 348 351 350 347 350 347 346 348 353 361 364 364 370 372 371 369 369 370 369 365 366 365 363 364 362 365 366 367 370 369 367 362 354 346
305 309 309 307 307 306 306 306 307 310 308 305 309 314 307 306 312 320 321 318 320 322 325 329 333 336 336 336 338 342 345 343 345 344 347 349 349 349 351 352 353 352 352 352 353 354 356 359 361 362 361 363 361 365 365 363 363 361 359 355 351 349 348 346 349 350 347 349 350 349 350 352 359 364 364 365 368 370 368 368 369 368 365 364 365 363 361 361 364 367 366 367 366 364 365 361 354
308 310 311 310 309 308 307 304 304 306 305 300 306 310 305 306 312 313 318 317 317 321 324 327 330 333 335 335 338 341 341 345 345 344 345 348 350 350 352 353 353 352 352 354 354 354 356 359 361 362 361 362 363 365 365 364 362 362 360 357 353 350 348 348 348 350 350 350 351 353 352 356 356 362 364 365 368 368 368 368 367 366 365 362 361 363 362 362 363 366 368 368 368 366 368 361 358
312 310 308 308 308 308 309 306 305 302 297 301 306 308 307 302 310 312 313 315 319 321 324 327 329 333 335 335 337 337 338 344 345 345 347 350 353 353 353 353 354 354 353 354 353 354 355 358 361 362 363 362 364 366 366 364 363 364 361 359 356 353 351 350 349 352 352 353 352 353 351 355 358 359 360 363 364 366 367 368 365 365 365 364 363 363 362 359 359 361 364 367 367 367 364 365 359
309 307 305 305 305 308 307 306 306 297 295 302 306 307 308 300 307 314 318 320 322 322 322 325 327 329 335 339 339 336 343 345 347 348 348 350 349 348 354 354 354 354 353 353 353 354 356 358 361 363 364 364 364 365 366 365 362 363 362 363 359 357 355 350 351 352 355 355 354 353 354 356 357 356 361 359 360 360 364 365 367 366 366 365 364 365 364 361 362 360 361 365 367 368 369 367 363
308 306 305 300 298 300 297 301 296 296 295 302 306 307 304 303 310 316 318 319 321 325 325 326 328 328 332 337 336 336 337 340 341 345 348 350 350 351 351 354 355 355 353 354 353 354 355 358 362 363 363 365 364 365 365 365 363 362 363 363 362 361 359 356 355 353 358 358 357 355 356 355 357 356 356 356 358 360 362 366 366 364 366 366 367 366 365 365 364 360 362 361 365 366 366 366 363
307 304 303 299 295 296 293 297 300 299 302 305 305 308 302 307 310 315 316 320 322 324 326 327 329 328 330 337 339 338 340 341 343 343 345 348 350 351 354 354 355 355 354 353 354 356 356 357 362 363 363 365 366 366 364 364 362 363 364 363 363 363 361 359 356 354 357 361 360 358 353 353 356 356 354 358 357 360 359 364 367 366 368 369 369 369 368 367 367 363 362 362 361 364 366 365 365
306 309 305 302 301 298 295 297 295 297 300 304 307 303 301 301 305 315 316 319 322 324 325 327 328 330 332 334 336 333 337 337 342 345 343 345 347 352 354 354 355 355 354 353 355 356 357 358 361 363 364 366 367 365 365 363 363 363 364 365 365 365 362 360 359 357 358 360 359 358 356 354 354 358 355 361 362 361 361 363 366 366 366 368 370 369 366 366 368 367 364 364 362 363 364 365 364
309 309 309 304 301 307 299 303 302 302 302 302 305 302 307 307 316 318 318 317 319 322 324 326 326 326 331 331 333 335 336 340 340 343 346 347 352 353 355 355 356 356 356 355 355 357 357 359 362 364 365 366 366 366 365 365 364 364 367 366 365 366 365 363 362 362 361 361 362 360 359 359 356 357 360 361 362 361 362 362 365 366 368 366 368 370 368 365 367 366 365 365 363 361 362 364 364
307 307 302 304 311 307 303 305 307 307 304 301 309 307 309 314 314 316 317 316 316 318 321 323 325 325 329 330 331 334 336 337 343 341 340 344 346 349 354 356 355 356 356 355 358 358 359 360 361 363 366 366 366 366 366 366 366 366 366 366 365 365 364 363 361 362 359 361 363 362 359 358 357 359 358 360 362 364 364 363 365 363 365 367 367 369 367 366 367 365 363 366 364 360 363 363 363
309 303 306 311 313 310 305 298 302 301 298 301 306 304 306 306 303 315 314 313 314 316 317 321 324 325 326 329 331 333 335 338 344 342 342 345 348 348 354 355 357 357 357 357 359 359 360 360 362 363 364 365 366 366 365 366 365 364 366 366 367 366 365 363 362 362 362 360 362 363 361 360 358 355 357 357 361 364 365 366 365 364 362 365 365 365 367 366 367 364 364 366 365 365 362 364 364
308 307 314 305 299 299 305 302 295 296 296 300 304 306 307 309 308 312 312 312 313 315 317 318 319 322 325 327 329 333 335 338 338 343 346 344 347 350 355 354 355 358 359 359 359 358 359 361 362 363 364 365 365 365 365 366 366 365 365 366 366 365 365 365 363 365 365 361 360 362 360 360 361 360 359 361 362 362 364 364 365 363 363 364 365 363 366 366 367 365 363 362 365 366 364 364 366
312 312 308 311 308 304 301 302 304 304 298 299 300 304 302 311 312 314 314 315 315 315 315 316 317 320 322 325 326 328 332 336 339 339 342 346 347 346 350 354 354 356 358 358 358 358 358 360 362 363 365 366 366 365 366 365 365 363 363 364 365 366 367 364 364 365 363 363 362 361 362 358 361 361 358 360 361 360 363 362 362 361 358 361 363 362 363 365 366 365 362 359 360 365 365 365 364
303 304 304 306 307 311 308 307 303 301 300 300 300 299 304 311 315 315 316 317 318 316 315 317 318 319 321 323 323 326 330 333 339 339 343 346 347 348 351 354 355 356 358 358 357 358 358 359 360 362 363 363 364 364 364 365 364 362 364 364 362 365 364 363 363 365 365 365 364 363 362 359 363 360 360 359 361 363 364 363 362 361 358 360 364 363 363 364 365 365 365 363 362 364 364 364 365
305 304 302 304 304 302 299 297 308 305 301 298 300 299 309 314 316 315 315 318 318 319 318 317 318 318 321 322 323 325 328 333 337 339 340 341 344 348 348 349 353 355 356 357 357 357 358 359 359 361 362 362 362 363 364 365 365 362 362 363 363 364 365 364 362 364 364 365 363 362 364 364 359 361 361 360 363 362 362 362 361 360 361 359 364 365 361 362 363 364 364 362 362 363 365 365 364
Wind_Speed
10 10 9 10 10 5 5 4 5 4 6 7 5 2 5 3 6 6 7 6 6 5 10 12 12 8 4 10 14 12 12 10 7 3 8 10 14 15 15 17 17 16 16 15 14 13 14 12 16 18 19 19 18 17 14 15 15 15 14 14 13 12 12 11 11 11 12 12 11 11 10 10 10 10 10 10 9 9 9 9 9 9 8 7 10 8 13 13 14 15 15 14 14 12 9 7 9
9 7 6 4 5 6 6 6 4 4 6 6 2 1 3 4 4 8 6 4 4 9 12 11 10 8 13 14 12 13 15 13 14 13 14 16 19 15 18 18 17 17 16 15 14 14 14 14 13 16 17 17 17 16 16 15 15 14 14 13 13 12 12 12 12 12 12 11 11 10 10 10 10 10 9 9 8 8 8 8 8 8 8 8 10 9 13 14 12 13 14 13 14 13 11 9 9
7 7 5 5 4 5 4 5 5 2 3 4 1 1 5 6 7 4 7 9 10 13 13 13 12 9 11 11 11 9 12 15 18 18 15 19 18 12 17 18 17 17 17 14 13 13 12 13 12 14 16 16 16 16 15 15 14 14 13 13 12 12 12 12 12 12 12 11 11 10 10 10 9 9 9 9 9 8 8 8 7 7 8 9 9 10 12 13 12 12 14 14 13 12 10 9 8
6 7 5 5 4 3 4 4 6 6 3 3 3 2 7 9 9 11 12 12 13 13 12 11 9 6 9 13 15 16 13 12 15 18 14 14 13 17 17 17 18 15 15 13 14 13 12 14 12 13 15 16 15 15 14 14 13 13 12 12 12 13 12 12 12 12 11 11 10 9 10 10 9 9 9 9 8 8 8 7 7 7 9 7 9 10 13 14 11 10 13 14 13 11 10 8 9
6 4 4 5 4 5 2 4 5 2 4 2 1 6 7 6 11 11 12 12 12 12 9 12 10 12 14 11 8 7 11 15 15 13 13 14 18 17 15 17 16 16 15 15 14 14 14 15 12 14 15 15 15 14 14 14 13 13 12 12 12 12 12 12 12 12 12 11 10 9 10 10 9 9 9 9 8 8 7 7 7 7 7 10 10 10 14 14 12 8 11 14 13 12 10 9 8
5 4 3 3 3 3 4 5 5 5 5 3 4 7 4 8 11 11 13 13 12 11 11 10 11 12 12 14 10 11 13 10 14 13 15 18 21 22 19 15 15 14 14 14 14 12 14 15 14 14 14 15 15 14 14 14 13 13 13 12 12 12 12 13 13 12 12 11 10 10 9 10 10 9 9 9 9 8 8 8 6 7 8 10 10 9 11 12 12 9 11 14 13 12 11 9 9
5 5 4 4 5 3 5 6 4 2 4 3 6 5 10 6 10 12 13 13 12 11 7 13 15 15 12 10 13 11 10 15 12 13 13 20 20 21 18 15 16 17 14 14 13 14 17 15 15 15 15 15 15 15 15 14 13 13 13 12 12 12 12 14 13 12 12 11 10 10 9 9 10 10 9 9 9 8 8 7 7 6 8 10 10 10 9 12 13 10 11 13 13 12 10 9 10
3 5 2 6 4 5 6 7 6 5 3 8 3 8 13 10 9 12 11 10 12 9 12 12 9 12 14 12 12 13 15 9 17 17 20 19 20 19 17 15 15 17 16 15 14 14 16 14 14 15 15 15 15 15 15 14 13 13 13 12 12 12 12 13 13 12 12 11 10 10 9 9 9 10 10 10 10 8 7 7 8 8 10 10 10 9 9 11 13 12 10 11 13 12 11 10 8
6 6 3 5 7 4 5 6 6 10 5 6 7 9 8 10 3 10 11 10 11 11 13 11 11 11 13 16 13 10 14 16 20 19 21 20 20 18 13 16 15 15 16 15 15 15 14 15 14 14 15 15 16 15 14 13 13 14 14 11 13 12 12 13 13 13 11 11 11 10 10 9 9 9 10 8 8 8 7 7 8 9 11 10 9 9 10 11 13 13 12 12 11 12 9 6 7
5 5 3 3 5 7 7 6 6 5 5 5 8 10 8 10 9 8 8 10 8 14 14 10 9 16 15 17 13 11 12 18 21 20 20 20 19 17 17 16 16 17 16 16 15 14 13 16 15 14 15 15 15 15 13 12 13 14 14 11 12 12 12 12 13 12 11 10 11 9 10 9 9 10 10 9 7 6 6 6 7 8 11 8 11 10 10 11 13 12 13 13 11 10 7 7 10
5 6 6 5 4 6 6 4 4 8 12 1 9 8 8 8 8 9 8 3 11 13 14 11 15 16 15 14 11 11 20 19 19 20 21 20 18 18 16 15 16 16 16 17 15 14 14 13 16 14 15 15 16 15 13 13 13 14 13 12 13 14 11 11 13 12 11 9 9 9 9 10 10 10 10 10 9 7 6 5 8 7 11 11 12 10 10 11 12 13 12 13 12 10 8 7 7
7 4 1 5 5 5 4 6 7 6 12 8 7 8 7 11 8 8 9 8 9 13 13 11 11 15 15 13 10 12 19 19 19 18 20 19 16 18 16 13 15 16 17 17 16 14 14 14 12 14 15 15 15 15 14 14 13 14 13 13 13 15 14 12 13 11 10 9 10 10 10 11 11 12 10 10 9 8 7 8 8 8 9 11 12 11 9 10 11 11 12 13 13 11 9 6 3
9 4 6 6 5 6 9 3 2 2 9 1 7 7 10 8 10 8 6 9 2 12 11 8 16 13 12 11 10 14 17 19 18 20 20 16 17 15 14 14 16 17 15 16 16 15 16 13 13 12 14 16 16 15 14 13 14 15 16 16 16 16 15 13 13 12 12 11 12 11 11 12 12 12 12 12 12 10 9 9 10 11 10 12 13 12 11 12 12 11 11 10 11 11 10 7 1
9 7 5 7 6 10 8 7 7 5 1 4 5 6 9 6 11 10 7 13 4 5 11 15 11 16 15 12 11 12 14 21 19 20 16 17 16 15 16 15 16 18 17 14 15 15 14 14 13 13 14 12 13 14 15 15 14 14 13 13 13 15 14 13 12 10 10 12 13 12 12 12 12 11 11 11 12 13 11 10 10 9 10 11 12 14 13 12 14 15 13 9 9 10 8 6 4
10 6 7 6 8 10 13 7 2 3 3 4 4 7 9 6 9 9 5 11 6 10 8 13 11 9 10 13 11 12 17 21 21 20 18 17 17 16 17 14 15 17 16 14 14 14 14 14 13 13 11 11 12 10 11 12 14 13 13 13 13 14 13 14 13 11 11 12 12 13 13 12 11 11 11 10 10 11 11 10 10 9 10 10 11 12 12 11 11 13 15 16 13 12 8 7 8
7 7 7 6 8 3 5 4 6 6 3 6 8 7 10 8 8 7 9 8 10 12 12 11 10 2 13 12 17 18 21 22 20 19 18 18 16 16 15 15 14 14 14 15 14 12 13 13 12 11 11 11 11 10 11 12 13 13 13 13 13 13 14 13 14 13 12 12 12 13 12 11 12 11 10 9 10 10 9 9 10 10 10 10 10 11 11 10 11 11 12 12 14 13 11 9 9
7 7 8 3 8 8 2 3 7 3 6 8 9 9 8 9 11 9 10 9 9 10 8 11 9 12 12 14 20 22 23 22 20 20 19 15 14 13 13 12 12 12 11 12 12 11 12 14 13 12 12 12 12 11 11 11 12 13 12 13 13 13 13 13 13 13 12 12 11 11 9 8 8 8 7 8 7 8 10 10 10 10 10 10 11 11 10 10 10 10 10 10 10 11 10 10 8
6 8 7 7 4 3 2 4 8 9 3 4 8 9 9 10 8 10 9 9 9 9 10 10 9 6 12 19 22 23 23 23 21 21 18 15 13 14 13 12 12 12 12 11 11 11 11 12 13 11 9 9 9 9 9 9 10 11 11 10 10 10 11 12 11 9 11 10 13 6 4 4 4 6 7 8 8 7 8 10 10 10 10 10 10 10 10 10 9 8 9 9 9 11 15 8 6
9 7 7 7 5 6 9 3 15 5 2 12 12 7 8 10 7 9 9 9 11 11 10 10 12 15 19 22 24 23 23 22 22 20 20 19 15 16 14 12 12 13 13 12 10 12 10 11 12 14 12 8 9 10 9 9 10 7 10 9 8 10 10 10 8 9 8 9 9 2 2 5 6 5 4 5 7 10 8 9 9 9 10 10 9 9 10 10 9 9 8 8 8 10 6 3 6
10 9 9 5 7 12 1 5 6 8 13 7 10 6 11 4 6 9 8 10 11 11 11 12 14 17 20 23 23 23 23 22 22 22 20 19 17 17 16 15 13 13 13 12 11 10 11 10 12 11 14 14 10 8 9 9 9 9 7 7 7 7 7 6 6 8 8 5 12 6 5 7 7 6 9 12 11 7 7 9 10 9 9 9 10 8 9 9 9 9 8 8 6 5 7 7 3
7 10 9 3 2 8 5 5 5 6 4 6 6 9 9 6 9 8 12 9 10 9 9 11 15 19 21 21 22 23 22 23 22 22 20 19 18 15 14 14 13 13 11 12 11 11 11 11 12 11 10 10 9 8 9 9 9 6 6 6 7 7 7 8 7 5 8 8 8 11 11 7 7 7 6 5 4 5 4 5 6 6 5 5 2 3 3 5 7 5 5 7 6 7 5 6 6
9 10 11 11 4 4 3 3 2 5 2 5 5 7 14 16 6 8 6 5 1 6 3 13 16 20 22 23 22 22 24 21 23 22 20 20 20 17 16 14 14 13 12 11 12 12 12 11 12 10 10 10 8 8 8 8 9 6 5 6 5 6 8 7 7 6 5 5 5 5 6 7 8 7 6 4 5 4 5 4 3 3 5 5 2 1 1 2 1 2 3 2 2 1 4 5 5
11 10 11 10 11 4 7 4 4 5 3 4 2 4 5 9 8 7 10 7 2 10 14 12 16 19 21 22 22 22 24 23 22 23 22 21 19 17 17 14 14 13 11 11 11 11 11 12 11 11 11 9 9 8 7 9 9 9 6 6 7 7 6 6 6 6 5 5 4 5 5 5 6 8 8 7 4 4 5 5 4 5 3 5 3 1 3 1 3 2 4 2 5 4 6 4 5
12 11 6 10 7 9 1 3 4 6 7 1 2 7 7 8 9 11 6 3 6 2 20 15 16 19 21 22 23 23 23 24 21 21 21 20 20 18 17 16 15 13 12 13 12 12 12 13 12 12 10 10 9 8 8 7 7 10 10 9 8 6 6 5 5 5 5 5 4 4 3 3 4 4 5 6 8 7 7 8 8 6 6 5 5 4 6 3 3 5 2 3 5 4 4 5 5
13 13 13 6 4 7 5 6 6 5 5 6 4 6 7 8 6 13 5 3 1 12 16 14 17 19 20 20 21 22 21 22 21 21 18 16 18 18 17 14 15 14 14 14 12 13 13 12 13 13 11 10 9 9 8 7 7 7 8 7 7 6 6 5 6 6 5 5 4 2 2 3 3 4 5 5 3 4 2 3 3 5 3 3 3 1 1 2 1 2 2 2 1 3 4 4 4
14 14 12 11 9 6 7 7 7 7 5 4 6 6 6 6 7 9 15 6 13 10 15 16 17 19 20 20 21 21 22 23 22 22 20 17 18 18 18 15 15 15 15 14 13 12 13 14 14 13 12 11 9 9 7 7 7 7 7 6 6 6 6 6 7 6 6 5 5 3 1 0 3 4 4 3 3 3 3 1 3 5 6 4 3 2 0 1 0 2 4 3 5 1 3 2 3
2 12 15 13 12 9 8 10 8 8 9 8 9 7 1 4 9 3 19 16 9 13 15 14 16 18 19 18 20 21 22 23 23 20 19 17 18 17 17 16 16 15 15 15 14 12 13 14 14 13 12 11 9 9 7 8 7 7 7 6 6 6 5 6 5 5 5 5 5 3 2 1 2 3 4 4 4 3 3 5 5 2 4 1 3 2 2 0 2 3 2 0 1 5 2 2 2
8 6 7 13 15 13 10 9 10 8 10 10 10 4 6 8 6 3 3 9 13 14 14 15 14 15 17 19 19 20 20 20 19 20 22 21 17 16 17 14 16 17 16 16 13 12 14 15 15 14 13 11 10 10 9 8 7 7 7 6 7 5 5 6 5 5 5 5 5 4 3 1 5 3 3 2 6 6 3 2 5 4 1 2 1 3 2 4 4 4 2 2 2 4 2 2 2
13 11 10 11 13 14 16 15 13 11 9 7 9 9 10 1 6 11 8 8 10 10 14 13 14 16 17 18 18 17 18 19 19 18 19 17 17 15 18 16 16 16 14 16 15 15 16 16 14 14 13 12 11 11 9 8 8 7 7 7 6 6 6 5 5 5 5 6 5 4 3 3 2 4 2 1 6 2 1 3 3 5 1 3 2 2 6 8 5 3 2 2 1 6 1 2 1
10 11 10 11 12 14 16 16 16 15 10 8 12 8 7 11 11 9 7 8 9 5 10 12 13 15 15 17 17 17 18 19 19 18 18 16 17 17 17 17 17 15 13 13 16 16 14 12 11 12 13 13 12 10 8 8 8 8 7 7 6 6 6 5 5 5 5 5 5 5 5 3 3 4 3 3 5 0 3 2 4 2 3 3 4 6 2 2 3 1 1 1 3 0 6 1 3
11 11 10 10 10 11 13 14 16 17 11 12 11 10 7 6 11 8 7 6 11 11 14 15 14 14 16 16 17 17 19 18 20 19 20 19 17 16 18 17 17 16 14 15 17 16 16 14 12 11 14 13 12 11 10 9 8 8 7 6 7 6 6 5 6 6 6 6 6 5 4 4 3 2 2 2 3 2 1 3 3 2 2 2 3 5 1 1 2 2 1 0 1 1 6 3 4
10 10 13 12 13 10 13 16 17 17 13 14 14 11 5 5 6 5 15 12 12 14 13 15 14 16 16 16 17 18 18 19 20 20 20 20 19 16 18 18 18 17 17 16 16 16 16 15 14 14 15 14 13 11 10 9 8 8 6 6 7 6 6 5 5 6 6 6 6 6 5 5 4 3 3 2 1 4 2 6 8 7 6 3 2 4 3 2 2 4 1 1 2 4 4 3 4
10 12 10 13 13 12 12 16 17 19 13 18 16 8 8 9 16 16 14 20 17 14 6 10 16 16 17 16 16 16 18 19 19 20 21 19 18 16 17 18 17 17 17 17 17 16 17 16 15 16 17 16 14 12 11 9 7 8 7 7 8 6 6 5 5 5 5 6 4 5 5 5 5 4 3 3 2 7 3 2 2 4 5 6 2 2 3 4 5 3 2 3 4 3 4 3 3
11 12 12 12 15 13 12 10 15 17 16 14 19 13 10 4 9 11 18 17 17 12 13 20 14 15 15 15 16 16 17 18 19 19 21 20 17 18 17 16 18 18 17 18 18 17 17 15 15 14 15 15 13 11 11 9 8 7 7 6 7 6 7 6 5 5 5 5 7 5 7 5 5 5 4 4 3 2 3 5 2 2 8 6 3 5 4 3 5 0 3 1 2 5 1 3 5
11 12 13 13 14 16 15 12 14 15 18 16 14 15 11 10 12 6 5 15 15 13 12 10 13 16 16 15 15 17 17 19 19 18 21 21 20 19 17 18 18 18 15 19 18 16 15 14 13 13 15 15 13 12 11 10 9 7 6 7 7 7 5 4 6 4 4 4 7 7 7 5 5 5 4 4 3 1 3 8 6 3 3 4 7 5 2 4 4 1 2 3 3 4 3 3 4
12 12 12 13 13 13 14 14 12 17 15 16 17 13 14 13 13 12 13 15 13 14 16 22 19 11 15 14 14 14 16 18 17 19 21 20 18 19 17 17 17 17 16 17 18 16 15 14 14 12 14 14 13 11 10 10 9 8 8 7 7 6 5 4 3 4 4 4 8 7 5 5 5 4 5 4 3 2 0 1 5 3 4 2 5 2 2 4 3 4 5 2 2 2 2 3 4
9 11 13 14 15 14 14 12 12 17 15 17 18 15 12 16 15 18 21 17 16 14 14 12 15 16 13 14 14 16 16 17 18 20 21 22 21 19 18 18 17 18 17 18 18 17 16 15 15 14 14 14 13 12 11 10 10 9 8 9 8 8 6 6 5 4 4 4 6 5 6 4 5 5 5 3 4 2 2 1 2 1 1 3 3 6 4 3 4 2 1 0 2 3 3 3 4
11 10 10 10 14 14 13 12 17 14 11 11 16 18 17 10 10 19 18 17 16 14 18 22 16 17 17 17 15 15 15 13 18 19 20 22 19 21 19 17 19 20 18 19 19 19 17 17 17 15 13 13 13 12 11 11 10 10 9 9 8 8 7 7 6 5 5 5 6 5 5 5 5 4 4 5 4 4 3 2 1 1 0 3 2 5 4 2 2 1 3 2 3 1 3 4 5
10 11 9 10 9 10 11 10 15 13 10 9 13 15 16 14 20 19 17 14 14 19 20 15 15 15 15 16 16 15 12 11 15 19 21 20 22 23 19 18 19 20 20 20 19 19 18 16 15 15 13 14 13 12 11 11 10 10 10 9 8 8 8 7 6 6 5 5 7 6 5 5 5 5 5 5 4 4 4 2 3 2 3 2 3 0 2 1 1 2 5 3 4 4 2 4 4
12 10 11 10 8 8 10 11 10 13 8 10 14 16 13 16 14 12 17 17 16 18 15 11 16 20 17 17 16 16 17 16 18 19 21 20 21 21 19 19 19 19 18 19 20 20 17 15 15 15 14 14 12 12 11 12 11 10 9 8 8 6 7 7 6 6 6 5 8 7 6 6 6 6 6 6 5 5 4 3 3 4 3 4 2 4 4 4 2 2 2 1 7 3 4 6 4
15 14 11 12 12 10 11 8 15 13 9 9 11 12 12 13 14 17 15 19 21 19 13 16 18 17 14 13 14 14 16 14 15 20 22 23 23 22 21 20 20 20 20 20 20 19 15 18 17 16 14 14 12 13 12 11 10 10 8 7 7 7 5 7 7 6 6 6 5 7 7 7 7 6 6 6 5 5 5 4 4 2 3 3 2 2 2 5 3 4 3 4 9 4 1 5 4
12 16 15 14 12 14 11 15 8 8 13 15 16 11 12 13 17 16 15 14 17 16 15 17 14 15 17 18 16 14 13 15 18 20 21 23 23 22 21 21 21 20 20 20 20 20 18 17 18 17 14 14 13 14 14 11 10 10 10 9 9 8 7 8 8 8 8 8 8 7 8 9 8 7 7 6 6 5 5 5 4 4 4 3 3 2 1 1 1 2 4 2 3 2 3 2 4
11 10 16 17 17 14 13 13 12 11 10 10 16 15 12 11 16 18 15 18 20 17 16 17 16 16 15 14 15 16 17 15 14 16 20 23 23 23 23 22 22 22 21 20 19 20 19 18 18 18 15 13 14 14 15 12 12 11 12 12 11 10 9 8 7 7 7 7 7 7 7 8 8 8 7 7 6 6 5 5 5 5 4 4 3 3 0 4 3 2 3 2 1 3 2 2 3
12 7 9 15 16 18 15 12 12 11 10 13 15 16 14 12 13 17 19 18 18 20 21 20 18 18 18 17 17 16 15 16 15 19 20 22 23 24 25 24 22 22 21 20 20 19 20 19 19 18 14 14 13 14 16 13 12 12 12 12 11 10 11 9 9 7 6 6 7 7 7 7 8 8 7 7 7 6 6 5 5 5 5 4 4 3 4 5 3 2 2 2 2 1 3 2 3
10 10 9 8 12 15 17 14 11 11 11 12 13 15 13 13 13 16 20 20 20 20 20 22 19 19 19 19 16 16 16 20 20 18 20 21 23 25 24 23 22 22 21 21 20 19 19 19 19 18 16 15 15 17 16 15 13 13 12 11 11 10 10 9 8 8 7 6 6 6 6 7 7 8 8 8 7 7 6 6 6 6 5 4 4 4 4 3 3 2 2 2 2 2 3 2 1
14 15 5 6 5 9 13 13 13 12 12 15 15 15 13 12 12 12 14 18 20 20 21 21 20 21 20 17 16 16 18 17 18 20 21 24 24 23 24 23 23 21 20 20 20 19 19 18 19 20 19 16 15 18 16 16 15 13 13 12 13 10 9 8 8 8 8 7 7 7 6 6 7 8 8 8 7 8 7 7 6 7 6 6 5 4 4 3 3 3 3 3 2 2 2 3 3
9 14 14 8 10 9 9 11 11 11 16 16 17 18 17 13 11 13 14 13 15 16 17 17 19 19 20 18 20 18 18 19 17 19 19 19 21 22 23 24 23 21 19 20 20 19 20 20 20 21 20 16 17 18 18 18 16 14 13 13 14 13 12 10 9 9 9 9 9 9 8 7 7 7 8 8 9 9 8 7 7 7 6 5 5 4 4 4 5 5 4 3 3 3 3 3 3
11 9 11 9 10 10 10 10 11 13 14 14 17 18 19 17 11 11 14 17 14 13 15 17 20 21 19 16 17 19 16 14 14 15 17 18 20 23 22 22 22 22 20 21 20 19 19 19 20 21 20 19 18 18 19 18 16 15 14 14 14 13 13 11 11 10 11 11 10 10 8 8 8 8 8 8 9 10 8 7 7 7 6 6 6 5 5 5 4 5 4 4 4 4 3 3 4
12 11 10 11 9 8 11 10 14 14 13 10 15 17 16 20 13 9 12 15 15 16 15 16 18 19 19 22 22 16 15 18 17 14 11 12 17 20 22 22 21 21 20 22 22 21 20 20 22 22 22 20 18 19 19 19 17 16 15 15 14 13 13 12 12 11 11 10 10 10 9 9 8 8 8 9 9 10 9 8 8 7 6 6 5 5 4 3 3 4 4 5 5 5 5 4 4
14 13 12 12 11 12 11 12 10 11 14 15 13 16 17 11 14 19 17 11 13 14 16 14 16 20 19 21 17 18 19 18 17 18 16 18 20 22 22 22 22 21 22 22 22 20 19 19 21 23 22 21 19 19 20 19 18 16 15 14 13 13 13 13 12 12 12 10 10 10 11 10 9 10 10 9 9 10 9 9 8 8 7 7 6 5 5 4 4 4 4 5 5 5 4 5 5
14 12 13 12 11 9 11 10 13 14 9 13 19 14 12 15 11 13 20 19 11 12 14 16 16 15 18 20 22 23 22 22 15 16 19 19 19 22 21 21 21 21 23 22 20 20 19 19 21 22 21 21 20 20 18 20 17 17 16 15 14 13 13 12 12 11 11 12 11 11 10 10 10 10 10 9 9 8 9 9 9 9 8 7 7 7 6 6 5 5 4 5 5 5 5 5 5
13 14 13 14 15 10 12 7 11 10 11 12 14 14 9 10 2 9 14 20 20 14 9 10 15 16 17 18 19 19 19 19 21 17 16 16 18 21 20 20 21 21 23 21 22 20 20 20 21 23 23 22 21 20 19 19 18 16 17 17 16 14 12 12 11 10 11 12 11 11 11 10 9 9 9 9 11 10 10 10 10 10 9 9 8 8 7 6 6 6 5 5 6 4 5 6 5
10 14 16 15 10 14 12 13 15 15 13 12 8 11 13 9 10 8 6 13 21 21 15 10 12 16 15 16 18 19 19 21 18 19 17 18 18 20 20 21 20 21 21 21 21 21 21 21 21 23 22 21 21 21 20 19 18 17 18 17 16 15 15 15 14 15 15 13 11 11 11 12 11 9 10 10 11 10 10 10 10 10 9 9 9 9 8 7 7 7 6 6 6 6 5 6 6
11 15 13 12 15 13 12 11 9 12 15 12 11 14 12 12 10 10 14 14 14 19 21 18 14 14 15 14 16 17 18 19 23 21 21 22 21 22 22 21 23 23 24 24 23 22 21 20 22 23 23 23 22 21 20 19 19 18 17 18 17 16 15 15 14 14 14 13 12 11 11 11 12 11 10 10 10 12 10 11 10 10 10 10 9 9 9 8 8 7 7 6 6 6 6 5 6
18 12 4 14 13 17 13 8 13 13 13 9 13 15 14 13 10 9 16 16 17 16 19 21 20 17 16 16 16 16 18 17 20 20 18 19 17 21 21 21 23 23 23 24 24 23 22 21 21 23 24 24 24 20 20 17 19 16 16 18 18 16 15 14 14 13 13 13 15 13 13 11 12 11 10 9 11 12 11 11 10 11 10 11 10 10 9 8 8 7 7 7 6 6 6 6 6
19 17 18 14 13 14 14 12 9 9 12 11 13 15 12 10 10 12 13 18 17 17 17 19 21 21 18 17 17 17 16 16 17 20 19 15 15 15 21 22 23 23 23 23 24 22 24 23 22 22 22 21 21 21 20 20 20 17 16 17 17 16 15 15 14 13 14 14 14 14 14 14 12 12 12 12 12 12 13 12 12 11 12 11 11 10 10 9 8 8 7 8 7 7 7 7 6
15 18 15 12 10 9 12 13 14 11 11 12 10 12 10 10 9 11 5 4 13 16 15 14 16 19 22 21 19 17 17 15 16 19 17 16 16 15 15 17 20 22 21 21 22 24 24 22 23 23 23 24 24 22 21 19 18 18 19 19 19 17 18 15 16 15 14 14 13 13 13 12 12 12 12 13 13 12 13 12 13 11 12 11 10 10 9 9 9 8 8 7 7 8 8 7 7
15 15 17 14 14 12 11 14 14 15 12 9 11 12 7 9 13 12 13 8 7 13 14 15 15 16 16 18 21 19 17 17 16 19 18 17 19 20 20 18 18 19 21 22 22 22 23 23 22 23 23 22 23 22 20 19 18 18 20 20 20 18 18 16 17 16 16 15 14 14 13 12 13 13 12 14 14 12 12 13 13 13 11 11 11 11 11 10 10 10 10 8 8 8 9 8 7
Wind_Direction
177 195 185 214 217 190 214 191 256 198 230 253 275 194 104 163 120 136 126 151 131 97 95 100 117 123 100 86 84 90 47 72 50 197 103 123 136 135 133 132 129 130 129 125 126 132 134 134 133 136 134 133 132 128 133 134 128 125 127 127 127 126 122 120 117 110 100 98 97 97 100 101 99 98 98 98 97 94 91 85 83 79 71 69 70 65 72 77 77 88 90 94 102 94 99 101 95
180 193 199 195 209 206 208 204 265 267 260 264 215 297 55 98 158 118 129 184 136 130 107 98 87 66 77 91 94 97 75 66 88 90 100 123 134 131 135 133 132 130 126 128 131 131 131 134 136 132 131 131 133 133 131 128 127 128 128 129 129 126 124 121 114 107 104 101 102 108 106 102 101 99 98 102 103 96 92 90 84 87 88 75 75 69 79 79 86 91 94 98 97 102 91 84 83
173 187 171 202 208 240 313 219 255 270 304 289 254 205 142 132 117 105 147 213 129 111 101 99 115 120 113 114 89 84 83 91 100 104 111 134 127 136 137 133 130 126 128 132 133 132 131 129 132 130 129 131 131 130 128 126 127 126 127 126 125 121 117 114 114 112 109 109 108 110 106 101 98 103 105 103 101 100 90 85 87 89 94 82 84 99 99 91 89 96 99 91 95 101 101 100 100
175 185 201 197 203 189 248 193 247 281 243 295 111 220 134 157 147 148 134 136 116 116 130 130 98 39 97 80 93 90 95 95 104 119 126 142 129 143 135 130 127 129 130 133 132 130 125 128 130 131 130 129 129 126 123 122 121 123 124 122 119 117 118 120 119 113 107 112 115 114 113 111 117 114 112 105 101 100 90 86 84 84 82 91 86 94 95 95 91 89 100 111 103 98 102 98 98
189 183 216 224 279 224 235 268 282 86 277 166 186 124 164 177 119 118 122 125 122 127 115 105 105 73 62 96 105 82 97 105 115 117 124 125 131 130 129 134 134 129 132 134 130 124 123 123 128 129 128 127 125 122 121 120 122 122 121 118 118 118 118 116 114 113 112 115 120 118 115 116 111 113 111 106 103 98 96 90 87 85 85 75 82 84 94 99 98 95 92 95 99 100 101 99 88
200 200 201 251 237 4 271 260 235 244 254 251 171 153 107 107 110 120 127 127 125 114 114 108 111 113 80 60 80 102 126 125 124 114 125 135 141 137 144 141 129 125 130 133 124 123 127 126 129 129 127 124 122 121 120 119 120 119 119 120 118 117 118 116 111 113 117 120 120 116 117 119 119 116 113 114 112 105 99 87 80 82 87 85 83 88 86 98 99 92 93 92 95 100 99 97 94
189 186 206 211 235 242 262 263 278 279 249 43 200 108 109 84 112 123 127 130 124 119 113 110 110 121 107 96 76 87 111 119 129 123 130 134 136 137 140 138 132 131 149 126 123 124 123 126 129 127 126 124 123 122 120 115 119 121 122 120 117 117 114 109 109 115 118 117 116 114 111 111 117 116 118 116 115 112 104 99 93 85 88 87 95 95 96 89 94 92 88 94 100 103 101 99 106
211 246 204 239 246 196 251 249 263 161 176 126 56 122 128 166 135 127 133 140 133 129 113 131 104 87 96 103 94 102 122 120 113 128 130 135 135 138 141 135 135 136 128 125 121 116 122 126 127 127 125 124 121 119 120 120 121 122 118 118 117 116 111 114 118 120 118 117 114 113 116 113 111 115 118 123 119 118 115 114 114 112 100 96 95 94 86 90 96 96 95 101 95 97 101 102 117
204 228 267 288 278 240 270 276 284 242 133 118 87 84 115 115 137 127 143 138 128 119 119 86 108 118 99 105 97 105 106 115 123 133 134 135 138 142 137 139 140 130 128 123 122 128 126 125 126 127 125 124 123 120 120 123 126 125 119 119 121 117 117 118 119 121 121 122 121 122 119 120 119 119 115 109 115 124 121 122 114 95 95 98 101 100 100 94 89 90 92 87 86 92 91 89 112
235 231 216 271 301 284 280 293 254 172 125 144 147 130 135 140 145 139 111 123 139 129 99 107 99 100 111 103 110 118 114 118 130 137 136 139 141 141 136 142 136 132 126 127 133 128 124 127 127 127 127 124 121 120 127 129 128 124 125 135 125 122 116 123 125 122 123 126 128 125 118 121 123 119 121 123 123 129 121 97 96 104 99 109 112 105 94 92 91 90 94 94 96 95 92 87 96
232 195 246 267 248 279 260 269 293 286 116 113 120 143 142 122 99 78 62 258 145 124 114 115 126 119 115 97 89 101 124 133 140 139 142 142 143 141 140 141 136 135 130 134 130 124 130 132 128 128 127 125 124 128 131 131 127 126 132 134 127 119 120 126 122 122 126 137 127 127 123 122 121 120 122 127 129 125 119 118 111 116 130 128 112 107 101 98 101 104 107 102 98 97 89 73 81
253 245 216 262 259 242 252 248 151 232 106 150 124 146 148 120 128 120 172 175 143 133 131 159 116 122 111 115 115 125 127 139 141 143 143 145 144 141 139 140 137 132 135 129 127 133 132 132 137 131 128 128 128 130 133 135 134 133 133 134 136 130 137 134 126 128 131 141 138 129 130 130 129 119 129 134 135 128 125 120 121 127 117 116 115 113 106 93 96 99 98 102 106 108 100 88 90
254 229 220 252 278 270 246 113 128 39 79 239 141 153 115 144 128 145 168 143 142 138 120 86 134 134 120 111 113 129 145 143 143 149 144 149 142 139 144 140 139 131 122 131 135 133 136 142 138 142 134 133 133 134 136 134 138 142 143 141 136 136 132 133 134 141 148 147 132 131 132 128 124 125 125 119 126 122 125 144 144 128 121 117 125 121 114 101 94 86 75 84 96 107 110 111 139
236 252 252 267 249 271 298 112 356 113 261 98 207 170 131 142 136 140 173 121 191 72 123 141 90 96 101 112 134 145 145 143 152 143 149 145 141 143 144 144 140 131 135 136 135 139 144 144 145 140 138 143 137 137 138 143 139 135 133 132 130 125 129 131 130 137 144 134 134 140 128 120 116 116 115 120 123 133 135 123 109 110 111 112 117 125 121 117 114 118 117 94 76 67 72 99 146
254 266 280 275 291 304 7 336 26 95 80 278 142 189 114 128 117 122 196 94 82 218 118 93 133 143 148 145 145 154 148 148 147 148 150 144 143 145 144 145 139 135 135 139 142 146 147 145 140 138 136 143 139 147 138 137 137 134 134 134 131 129 134 134 134 144 150 137 134 128 122 115 111 111 113 111 116 113 114 115 108 111 106 106 107 111 112 113 111 110 117 128 130 130 140 151 123
242 268 270 289 284 249 111 76 266 93 135 232 194 181 135 148 146 122 81 140 145 167 163 134 136 175 149 153 150 148 149 147 147 152 144 144 145 143 145 144 142 140 138 146 145 146 149 141 139 134 145 153 149 148 135 137 138 138 137 135 134 134 135 137 140 150 141 137 131 124 118 120 117 113 115 113 112 116 113 105 111 107 109 108 106 106 112 114 116 118 116 125 132 134 136 128 126
239 261 271 211 260 17 354 214 215 115 154 191 210 180 144 153 140 148 162 170 150 137 179 124 127 150 168 137 144 147 146 145 153 150 144 147 147 148 149 149 147 144 141 146 145 151 151 139 144 141 153 155 147 147 135 136 139 142 139 136 139 140 140 143 147 147 145 136 131 116 127 117 119 119 117 107 115 103 107 114 113 111 112 110 109 108 112 114 114 118 122 121 134 140 134 132 124
245 245 259 270 4 175 50 258 72 143 144 197 195 182 162 151 167 121 157 164 132 142 124 127 103 117 136 128 140 143 146 149 155 150 149 149 158 152 154 152 154 147 146 149 147 155 148 146 146 134 141 151 152 142 141 139 143 152 143 144 146 148 150 147 156 154 150 139 114 130 122 108 122 116 120 123 104 106 109 113 117 114 111 112 111 116 117 119 120 125 131 134 142 155 155 135 138
238 244 243 263 156 260 205 87 124 79 199 197 212 152 212 140 171 150 165 161 149 145 133 127 118 108 118 133 137 145 149 154 155 152 155 156 159 153 156 154 156 150 150 151 154 152 155 150 147 147 140 161 166 147 142 141 141 142 148 151 148 155 154 165 161 160 143 137 111 133 163 136 133 120 125 106 106 106 117 110 108 111 113 114 122 125 130 130 137 140 143 155 160 177 199 176 149
231 259 272 328 10 187 83 14 68 146 183 162 174 145 49 54 209 148 185 156 159 160 146 140 129 125 134 135 146 148 154 156 157 155 160 162 160 157 154 160 153 156 153 152 153 153 156 156 147 148 149 163 156 147 145 148 142 153 151 151 154 151 162 155 177 161 140 159 130 174 186 157 145 137 136 126 127 134 128 133 127 119 123 129 138 141 143 146 144 149 159 171 193 195 231 132 136
202 239 247 225 202 310 69 69 35 99 330 150 148 133 131 219 217 185 121 186 175 141 152 153 140 139 137 145 149 154 158 159 161 159 163 167 159 161 157 161 155 157 155 151 154 154 159 158 150 149 150 151 150 149 152 147 133 150 159 156 153 158 167 162 172 158 149 177 152 154 156 156 150 135 135 142 137 145 126 126 142 143 157 140 181 121 140 151 164 150 163 188 192 218 143 103 110
267 243 256 281 313 256 108 116 2 27 22 10 142 176 161 219 198 196 96 50 60 20 208 151 147 146 148 148 154 159 161 163 163 161 168 167 163 163 159 159 154 155 153 161 155 154 161 161 153 150 153 155 152 157 154 136 139 152 153 161 151 189 164 163 160 159 146 150 166 142 137 146 136 141 141 152 148 169 135 139 183 200 149 131 171 172 132 157 191 151 165 214 272 299 92 104 153
245 248 255 271 283 74 266 152 163 277 299 149 181 252 154 172 192 121 87 170 131 130 271 154 155 150 148 148 156 165 164 167 166 168 168 169 167 164 163 159 159 159 158 160 156 156 163 159 156 159 153 155 161 159 150 152 158 149 157 165 167 205 160 165 162 147 145 156 151 147 155 152 146 147 148 155 157 180 148 175 180 191 147 122 187 47 39 232 185 218 204 146 278 132 103 102 85
242 266 237 241 246 277 135 255 143 224 223 285 266 146 230 156 204 131 165 108 209 144 239 154 149 149 151 152 162 168 166 165 169 170 168 170 169 166 167 161 164 153 161 155 165 160 163 162 158 162 155 160 161 161 156 159 154 151 161 168 189 160 165 169 145 139 137 142 156 160 157 156 137 132 136 145 153 176 168 171 205 143 167 139 156 158 153 208 248 205 69 142 163 96 121 116 106
234 242 263 288 270 259 224 220 200 230 260 252 260 211 209 172 198 132 158 208 201 218 156 143 146 147 153 153 160 165 168 164 172 169 170 169 171 167 169 162 165 154 162 161 167 160 167 157 163 161 158 164 162 165 164 164 156 156 150 164 155 154 167 160 144 137 156 148 136 149 166 149 152 131 147 149 165 115 109 155 119 104 49 118 111 78 146 104 109 67 59 344 119 103 117 103 97
233 248 247 250 251 248 245 241 239 241 252 238 243 231 218 152 273 143 166 163 236 148 135 140 147 152 153 158 164 166 170 172 170 167 177 169 173 167 173 164 168 163 162 163 168 162 167 156 168 161 163 167 165 170 166 159 159 154 158 162 132 178 163 150 145 164 148 147 143 154 55 290 124 131 107 98 117 130 124 77 31 45 71 20 91 174 124 67 326 52 53 0 330 135 88 75 97
128 234 239 252 253 244 231 243 226 231 240 215 232 220 164 206 155 217 159 173 174 141 142 144 152 155 158 165 165 169 171 172 171 166 173 174 174 171 174 165 170 166 162 166 168 165 164 160 169 161 162 169 168 168 172 157 165 158 165 152 153 181 140 136 172 150 145 141 123 113 106 5 98 94 118 137 131 135 145 95 57 84 77 98 54 258 132 167 39 56 99 43 23 316 86 106 113
251 260 260 244 248 251 252 227 239 223 222 221 239 159 192 236 210 53 164 156 167 153 154 145 157 166 162 168 166 167 173 173 171 171 175 174 174 176 175 167 171 167 167 169 164 169 164 167 168 161 162 171 173 167 169 158 165 161 165 158 163 164 145 163 162 144 143 123 125 137 132 89 60 37 82 79 75 46 342 111 133 86 302 112 90 329 301 153 160 185 153 61 287 242 88 152 72
253 258 260 254 236 238 232 240 227 216 236 203 227 238 175 212 205 165 191 172 142 174 148 159 164 164 164 167 168 171 173 172 175 177 178 176 173 177 174 170 171 170 167 171 162 172 168 170 164 162 161 170 178 168 165 164 162 160 172 169 161 145 176 172 154 150 130 124 138 147 118 104 117 100 67 173 96 125 256 66 77 92 164 302 185 71 34 25 3 350 106 157 37 339 18 94 88
243 242 257 260 247 233 223 223 229 220 225 218 203 224 222 183 213 161 138 182 157 168 154 175 169 166 169 171 166 172 175 173 179 180 176 176 175 176 175 173 171 170 165 171 164 176 165 173 163 167 160 171 181 165 171 163 163 166 173 165 148 165 174 170 155 146 141 145 145 146 139 140 144 117 197 119 89 103 234 176 95 130 129 216 91 76 346 38 37 323 0 27 48 246 301 174 124
226 233 235 248 246 239 218 214 210 222 186 211 222 235 197 181 213 168 141 170 168 181 183 183 172 170 168 173 166 175 176 179 179 180 178 175 177 178 177 175 172 171 166 174 169 176 168 171 165 170 160 168 182 157 175 162 169 161 171 159 152 185 162 180 163 150 161 156 154 147 154 158 141 147 143 124 165 166 58 90 49 66 352 85 73 112 103 10 16 259 280 32 176 321 265 190 148
220 225 222 227 241 239 229 201 205 217 176 208 212 227 243 308 284 192 157 198 195 190 177 195 174 176 170 172 170 175 175 179 182 180 182 177 178 182 176 176 174 173 170 172 166 177 171 170 171 167 163 166 182 156 175 161 175 158 164 158 149 184 168 184 168 161 165 160 162 145 159 153 172 153 155 188 25 95 171 150 182 153 148 104 203 122 142 123 174 255 250 93 176 225 194 145 132
214 225 227 223 218 235 243 201 200 207 201 199 200 232 154 185 219 206 187 187 188 190 176 234 185 173 172 173 171 176 174 180 183 182 183 182 177 179 176 178 176 174 171 172 168 179 173 167 176 168 167 167 174 160 169 163 175 160 163 170 152 179 169 175 180 166 167 165 155 137 155 165 171 165 164 178 162 152 214 331 110 162 95 124 243 76 73 149 239 179 207 220 225 216 120 115 112
212 209 236 228 221 215 239 189 188 192 213 201 194 215 212 190 209 171 179 193 195 176 198 192 202 180 175 174 172 179 177 179 185 180 183 184 175 181 176 177 176 176 170 174 171 178 175 167 179 168 167 166 170 162 170 163 170 162 164 174 150 184 181 170 174 172 173 157 133 159 153 185 166 164 172 183 222 114 211 100 280 123 148 131 156 134 121 19 254 24 160 136 337 5 78 153 120
211 203 216 226 231 228 224 221 176 211 201 221 212 224 179 196 177 172 249 208 191 177 191 239 203 175 184 173 178 177 179 182 184 185 183 183 178 179 177 178 176 178 173 175 171 176 175 167 178 165 170 168 166 166 169 166 166 169 173 168 159 178 207 197 159 178 170 166 137 139 152 177 165 166 170 194 216 185 214 160 157 224 150 135 109 99 144 151 253 138 17 123 180 166 242 117 132
231 218 219 227 227 218 226 225 202 191 203 217 218 206 197 198 169 162 213 202 208 195 205 195 182 187 179 177 181 183 184 183 185 184 185 183 181 179 178 178 176 180 173 175 169 174 176 165 179 168 171 170 163 167 171 173 171 178 177 175 169 187 185 198 187 170 178 176 127 147 160 169 164 176 175 182 229 199 129 321 117 229 63 84 98 42 92 160 149 204 165 183 107 107 100 161 142
289 259 236 223 230 236 225 229 230 173 208 215 220 220 204 211 174 157 189 204 204 181 229 243 174 189 169 182 189 187 186 186 183 186 186 184 181 180 180 176 178 178 173 174 172 174 178 168 176 173 171 174 166 172 177 179 176 179 182 187 180 181 190 178 199 195 178 184 139 148 160 172 161 178 176 202 180 200 271 229 98 27 181 137 122 119 155 227 164 119 71 212 167 128 123 139 136
243 262 265 243 227 234 226 211 240 185 202 218 221 226 222 193 219 184 181 184 202 205 197 219 184 179 176 181 183 202 187 183 183 185 188 184 183 182 180 178 177 178 176 174 175 176 177 172 176 174 171 177 173 177 175 183 181 182 183 189 184 180 183 188 192 199 205 149 141 156 171 179 171 184 190 187 187 182 211 230 169 211 101 80 83 138 201 90 84 140 86 32 10 10 125 131 120
238 244 243 259 241 241 241 228 224 217 191 236 220 226 236 210 209 198 175 180 205 210 204 186 191 167 177 178 184 188 189 186 188 186 189 185 187 182 183 179 181 180 175 177 175 175 177 175 176 175 174 179 175 177 176 185 183 185 188 187 195 181 183 193 192 191 200 179 152 170 182 174 180 197 192 193 194 199 193 213 212 165 140 76 235 153 76 106 180 114 127 142 227 150 88 101 152
239 222 241 237 242 223 219 233 251 239 214 218 220 225 224 227 221 227 171 181 205 221 212 232 189 164 175 179 181 184 190 180 197 189 190 191 189 183 184 181 180 180 177 177 178 177 177 177 174 176 177 178 176 177 180 183 183 183 190 193 197 210 176 183 195 183 190 211 160 172 184 186 192 200 197 197 205 200 194 197 226 130 236 176 216 127 186 181 118 296 53 35 52 318 149 134 156
226 241 236 239 239 231 254 215 213 235 231 258 263 244 224 220 221 212 187 198 193 217 191 194 227 149 170 174 181 183 185 188 193 192 190 188 190 187 185 181 180 182 179 180 180 178 179 177 174 175 176 180 177 175 179 177 175 178 183 193 191 219 184 176 186 188 184 201 194 172 185 190 193 207 197 202 212 195 189 199 204 208 171 200 202 115 126 232 197 156 120 175 125 208 163 118 148
223 225 239 249 248 256 229 256 306 223 219 211 223 249 239 210 222 225 190 206 205 188 200 210 193 165 174 183 181 179 183 194 194 197 199 192 189 185 183 182 183 183 182 181 182 180 178 176 174 175 176 180 179 175 175 174 174 175 177 179 185 193 190 184 187 190 186 184 207 184 178 188 194 202 196 205 207 197 191 196 201 203 197 193 202 225 274 114 117 194 150 205 144 185 104 158 134
235 216 214 235 254 259 253 243 223 231 235 210 208 236 238 217 217 218 220 206 198 181 195 216 202 182 184 181 188 182 186 190 210 200 198 197 194 187 184 184 185 185 182 181 182 181 180 176 176 175 175 177 178 174 174 173 174 180 181 185 187 187 190 192 190 198 195 186 207 197 180 185 192 200 202 194 205 198 197 197 199 210 211 190 199 215 168 279 123 204 140 159 167 132 109 116 153
237 248 215 217 228 241 252 253 244 253 252 261 218 212 246 241 215 209 214 216 214 195 190 194 213 176 183 188 194 181 186 190 191 195 203 207 190 189 186 185 186 186 181 181 183 182 181 177 177 176 175 176 178 173 177 176 177 180 184 190 191 193 196 193 192 201 205 201 195 205 186 187 183 203 203 192 199 199 199 196 202 210 216 208 190 220 197 214 118 142 144 115 106 161 152 172 217
239 226 240 237 229 231 239 242 246 244 257 241 244 217 227 237 246 221 204 211 211 211 206 203 186 184 191 191 175 178 192 191 192 201 201 202 195 192 186 185 188 186 182 183 185 183 180 178 177 177 177 176 177 175 176 180 180 181 183 188 194 197 200 199 192 197 201 206 198 198 200 183 181 197 207 193 197 203 198 202 198 210 209 216 203 204 209 185 169 150 170 168 174 171 185 160 248
228 258 267 292 267 244 232 237 241 245 240 245 235 233 241 233 212 236 234 225 211 210 205 205 198 188 195 187 178 185 194 196 193 196 200 200 196 195 187 183 184 188 186 184 183 181 179 179 178 178 180 178 176 177 178 180 183 182 185 189 193 194 198 199 198 188 198 190 199 191 200 192 189 194 199 202 189 202 202 199 204 206 210 213 207 202 203 179 170 181 200 197 187 188 168 180 185
237 230 244 215 250 248 234 237 241 240 242 239 239 238 243 249 214 218 229 226 229 208 209 203 198 200 180 180 167 201 193 193 189 199 200 201 199 199 184 183 185 186 185 183 184 183 181 180 179 180 181 178 177 178 178 181 183 184 186 190 193 194 192 194 197 190 188 188 192 193 193 194 202 196 201 198 197 199 199 203 206 202 213 203 206 208 203 204 183 190 194 178 204 210 195 190 205
229 233 227 236 225 227 242 229 221 239 241 234 235 237 236 245 225 220 219 235 225 223 218 204 198 201 180 174 188 196 191 190 192 197 198 199 204 200 189 185 182 184 185 182 186 184 182 181 179 180 180 180 180 179 180 181 184 186 188 189 193 194 190 192 194 195 188 190 191 192 192 193 202 199 201 199 201 201 197 201 211 204 208 205 194 212 212 210 214 181 184 176 197 209 214 214 216
222 219 225 226 215 214 220 211 219 224 235 227 226 228 237 238 247 238 222 227 216 204 225 201 196 207 190 169 193 191 183 184 192 194 214 201 210 196 190 183 181 184 185 183 184 185 183 182 181 180 181 181 181 181 182 183 184 186 187 188 193 193 194 192 194 197 190 192 191 193 189 195 194 205 201 204 199 203 191 196 203 208 201 204 205 202 220 223 231 218 181 189 195 195 207 210 218
211 216 213 213 219 210 220 214 228 239 226 232 236 217 242 255 237 233 252 236 226 216 207 221 209 202 198 175 184 189 189 187 192 184 193 211 201 198 187 182 181 183 186 184 185 185 183 182 182 182 182 181 180 181 182 184 186 186 186 188 190 192 194 194 194 197 195 193 193 196 195 194 194 200 201 203 203 194 197 191 198 204 201 199 203 205 210 204 211 235 205 206 203 199 209 210 223
211 220 219 219 227 223 216 218 218 224 246 205 213 236 227 225 229 225 221 238 247 230 207 203 231 214 195 189 189 201 199 166 187 188 187 195 212 201 188 183 182 183 186 185 185 184 182 183 182 183 182 182 181 182 182 184 184 185 185 186 189 189 193 193 196 197 198 196 199 199 199 199 200 198 202 195 202 189 196 192 194 202 197 200 198 199 201 201 203 217 228 213 229 198 209 216 217
206 211 221 228 222 231 248 230 228 232 225 233 198 219 225 230 261 240 218 214 221 236 234 193 205 230 195 195 195 193 196 161 181 179 188 201 202 203 190 185 183 183 185 185 185 184 184 184 182 183 182 182 182 182 183 183 183 184 184 186 188 190 190 192 192 196 198 199 199 201 198 203 208 196 197 194 192 192 191 192 193 200 197 196 196 198 200 202 201 209 213 218 223 219 207 213 229
200 201 214 223 224 235 250 266 266 247 238 238 222 204 217 240 223 208 255 219 209 216 219 209 214 219 205 195 195 196 196 187 172 173 180 199 205 206 198 187 184 184 184 186 183 184 184 182 182 183 183 182 183 183 183 182 181 182 185 185 187 188 190 191 194 194 197 197 199 201 199 202 206 205 193 193 191 190 189 191 193 200 200 197 196 198 201 205 200 207 207 217 222 222 208 218 228
256 217 211 215 229 248 244 247 232 247 243 222 227 231 202 203 222 181 199 218 218 210 216 211 211 218 211 200 196 198 197 189 170 179 179 190 196 202 197 190 187 185 185 186 184 185 184 184 182 182 182 183 183 183 182 181 180 183 183 185 186 188 190 194 196 194 198 197 198 199 202 198 203 203 201 191 187 186 191 191 194 197 197 199 198 198 201 206 206 209 209 212 218 225 218 215 225
238 258 231 211 195 214 222 254 238 224 227 250 226 242 243 204 215 199 196 202 211 215 208 214 211 210 210 208 205 202 201 196 175 173 185 190 193 203 196 192 192 188 186 186 184 183 183 184 184 184 185 185 183 183 183 181 181 181 183 185 186 187 192 195 198 196 196 201 199 197 203 199 199 201 198 192 182 189 192 190 197 195 196 195 194 200 197 203 207 213 209 210 207 213 221 216 221
265 271 268 271 255 219 214 217 248 251 240 222 230 222 233 224 230 207 212 200 206 213 209 209 214 208 207 211 207 205 205 199 185 177 186 177 178 205 208 197 193 189 187 188 185 183 185 185 183 186 186 185 184 184 181 182 183 183 183 184 185 187 190 194 193 194 199 199 200 197 199 199 198 197 195 193 188 192 189 192 193 199 198 195 193 198 196 196 205 212 217 216 198 205 215 218 220
213 237 242 237 245 284 257 213 217 231 236 238 237 219 217 225 217 218 211 138 201 205 210 210 214 215 210 212 216 206 201 200 193 174 174 169 185 195 219 213 198 190 187 188 186 186 186 184 184 185 184 185 186 187 184 183 182 184 180 182 184 185 189 191 191 193 197 198 197 199 196 201 192 199 192 193 192 192 190 193 194 198 201 192 194 195 194 194 198 205 215 217 215 196 210 217 219
226 221 233 238 221 218 229 235 211 217 231 237 235 244 253 211 194 196 225 201 194 196 205 203 214 227 224 205 208 207 198 197 197 172 180 183 182 191 195 211 211 192 188 189 189 189 187 186 185 184 184 187 187 186 185 182 183 183 183 183 184 184 188 190 191 190 195 195 197 197 195 198 196 195 195 193 194 195 195 192 196 197 200 198 191 193 194 192 194 200 207 205 214 205 202 216 217